Year,Month,Day,Hour,Minute,Value (Times are PST for barometer in hPa)
2013,06,25,00,00,983.88
2013,06,25,00,01,983.88
2013,06,25,00,02,983.88
2013,06,25,00,03,983.88
2013,06,25,00,04,983.88
2013,06,25,00,05,983.88
2013,06,25,00,06,983.88
2013,06,25,00,07,983.88
2013,06,25,00,08,983.88
2013,06,25,00,09,983.88
2013,06,25,00,10,983.88
2013,06,25,00,11,983.88
2013,06,25,00,12,983.88
2013,06,25,00,13,983.88
2013,06,25,00,14,983.88
2013,06,25,00,15,983.88
2013,06,25,00,16,983.88
2013,06,25,00,17,983.88
2013,06,25,00,18,983.88
2013,06,25,00,19,983.88
2013,06,25,00,20,983.88
2013,06,25,00,21,983.88
2013,06,25,00,22,983.88
2013,06,25,00,23,983.88
2013,06,25,00,24,983.88
2013,06,25,00,25,983.88
2013,06,25,00,26,983.88
2013,06,25,00,27,983.88
2013,06,25,00,28,983.88
2013,06,25,00,29,983.88
2013,06,25,00,30,983.88
2013,06,25,00,31,983.88
2013,06,25,00,32,983.88
2013,06,25,00,33,983.88
2013,06,25,00,34,983.88
2013,06,25,00,35,983.88
2013,06,25,00,36,983.88
2013,06,25,00,37,983.88
2013,06,25,00,38,983.88
2013,06,25,00,39,983.88
2013,06,25,00,40,983.88
2013,06,25,00,41,983.88
2013,06,25,00,42,983.88
2013,06,25,00,43,983.88
2013,06,25,00,44,983.88
2013,06,25,00,45,983.88
2013,06,25,00,46,983.88
2013,06,25,00,47,983.88
2013,06,25,00,48,983.88
2013,06,25,00,49,983.88
2013,06,25,00,50,983.88
2013,06,25,00,51,983.88
2013,06,25,00,52,983.88
2013,06,25,00,53,983.88
2013,06,25,00,54,983.88
2013,06,25,00,55,983.88
2013,06,25,00,56,983.88
2013,06,25,00,57,983.88
2013,06,25,00,58,983.88
2013,06,25,00,59,983.88
2013,06,25,01,00,983.88
2013,06,25,01,01,983.88
2013,06,25,01,02,983.85
2013,06,25,01,03,983.85
2013,06,25,01,04,983.85
2013,06,25,01,05,983.85
2013,06,25,01,06,983.85
2013,06,25,01,07,983.85
2013,06,25,01,08,983.85
2013,06,25,01,09,983.85
2013,06,25,01,10,983.85
2013,06,25,01,11,983.85
2013,06,25,01,12,983.85
2013,06,25,01,13,983.85
2013,06,25,01,14,983.85
2013,06,25,01,15,983.85
2013,06,25,01,16,983.85
2013,06,25,01,17,983.71
2013,06,25,01,18,983.71
2013,06,25,01,19,983.71
2013,06,25,01,20,983.71
2013,06,25,01,21,983.71
2013,06,25,01,22,983.71
2013,06,25,01,23,983.71
2013,06,25,01,24,983.71
2013,06,25,01,25,983.71
2013,06,25,01,26,983.71
2013,06,25,01,27,983.71
2013,06,25,01,28,983.71
2013,06,25,01,29,983.71
2013,06,25,01,30,983.71
2013,06,25,01,31,983.71
2013,06,25,01,32,983.64
2013,06,25,01,33,983.64
2013,06,25,01,34,983.64
2013,06,25,01,35,983.64
2013,06,25,01,36,983.64
2013,06,25,01,37,983.64
2013,06,25,01,38,983.64
2013,06,25,01,39,983.64
2013,06,25,01,40,983.64
2013,06,25,01,41,983.64
2013,06,25,01,42,983.64
2013,06,25,01,43,983.64
2013,06,25,01,44,983.64
2013,06,25,01,45,983.64
2013,06,25,01,46,983.64
2013,06,25,01,47,983.51
2013,06,25,01,48,983.51
2013,06,25,01,49,983.51
2013,06,25,01,50,983.51
2013,06,25,01,51,983.51
2013,06,25,01,52,983.51
2013,06,25,01,53,983.51
2013,06,25,01,54,983.51
2013,06,25,01,55,983.51
2013,06,25,01,56,983.51
2013,06,25,01,57,983.51
2013,06,25,01,58,983.51
2013,06,25,01,59,983.51
2013,06,25,02,00,983.51
2013,06,25,02,01,983.51
2013,06,25,02,02,983.51
2013,06,25,02,03,983.51
2013,06,25,02,04,983.51
2013,06,25,02,05,983.51
2013,06,25,02,06,983.51
2013,06,25,02,07,983.51
2013,06,25,02,08,983.51
2013,06,25,02,09,983.51
2013,06,25,02,10,983.51
2013,06,25,02,11,983.51
2013,06,25,02,12,983.51
2013,06,25,02,13,983.51
2013,06,25,02,14,983.51
2013,06,25,02,15,983.51
2013,06,25,02,16,983.51
2013,06,25,02,17,983.34
2013,06,25,02,18,983.34
2013,06,25,02,19,983.34
2013,06,25,02,20,983.34
2013,06,25,02,21,983.34
2013,06,25,02,22,983.34
2013,06,25,02,23,983.34
2013,06,25,02,24,983.34
2013,06,25,02,25,983.34
2013,06,25,02,26,983.34
2013,06,25,02,27,983.34
2013,06,25,02,28,983.34
2013,06,25,02,29,983.34
2013,06,25,02,30,983.34
2013,06,25,02,31,983.34
2013,06,25,02,32,983.31
2013,06,25,02,33,983.31
2013,06,25,02,34,983.31
2013,06,25,02,35,983.31
2013,06,25,02,36,983.31
2013,06,25,02,37,983.31
2013,06,25,02,38,983.31
2013,06,25,02,39,983.31
2013,06,25,02,40,983.31
2013,06,25,02,41,983.31
2013,06,25,02,42,983.31
2013,06,25,02,43,983.31
2013,06,25,02,44,983.31
2013,06,25,02,45,983.31
2013,06,25,02,46,983.31
2013,06,25,02,47,983.34
2013,06,25,02,48,983.34
2013,06,25,02,49,983.34
2013,06,25,02,50,983.34
2013,06,25,02,51,983.34
2013,06,25,02,52,983.34
2013,06,25,02,53,983.34
2013,06,25,02,54,983.34
2013,06,25,02,55,983.34
2013,06,25,02,56,983.34
2013,06,25,02,57,983.34
2013,06,25,02,58,983.34
2013,06,25,02,59,983.34
2013,06,25,03,00,983.34
2013,06,25,03,01,983.34
2013,06,25,03,02,983.20
2013,06,25,03,03,983.20
2013,06,25,03,04,983.20
2013,06,25,03,05,983.20
2013,06,25,03,06,983.20
2013,06,25,03,07,983.20
2013,06,25,03,08,983.20
2013,06,25,03,09,983.20
2013,06,25,03,10,983.20
2013,06,25,03,11,983.20
2013,06,25,03,12,983.20
2013,06,25,03,13,983.20
2013,06,25,03,14,983.20
2013,06,25,03,15,983.20
2013,06,25,03,16,983.20
2013,06,25,03,17,983.07
2013,06,25,03,18,983.07
2013,06,25,03,19,983.07
2013,06,25,03,20,983.07
2013,06,25,03,21,983.07
2013,06,25,03,22,983.07
2013,06,25,03,23,983.07
2013,06,25,03,24,983.07
2013,06,25,03,25,983.07
2013,06,25,03,26,983.07
2013,06,25,03,27,983.07
2013,06,25,03,28,983.07
2013,06,25,03,29,983.07
2013,06,25,03,30,983.07
2013,06,25,03,31,983.07
2013,06,25,03,32,982.90
2013,06,25,03,33,982.90
2013,06,25,03,34,982.90
2013,06,25,03,35,982.90
2013,06,25,03,36,982.90
2013,06,25,03,37,982.90
2013,06,25,03,38,982.90
2013,06,25,03,39,982.90
2013,06,25,03,40,982.90
2013,06,25,03,41,982.90
2013,06,25,03,42,982.90
2013,06,25,03,43,982.90
2013,06,25,03,44,982.90
2013,06,25,03,45,982.90
2013,06,25,03,46,982.90
2013,06,25,03,47,982.86
2013,06,25,03,48,982.86
2013,06,25,03,49,982.86
2013,06,25,03,50,982.86
2013,06,25,03,51,982.86
2013,06,25,03,52,982.86
2013,06,25,03,53,982.86
2013,06,25,03,54,982.86
2013,06,25,03,55,982.86
2013,06,25,03,56,982.86
2013,06,25,03,57,982.86
2013,06,25,03,58,982.86
2013,06,25,03,59,982.86
2013,06,25,04,00,982.86
2013,06,25,04,01,982.86
2013,06,25,04,02,982.83
2013,06,25,04,03,982.83
2013,06,25,04,04,982.83
2013,06,25,04,05,982.83
2013,06,25,04,06,982.83
2013,06,25,04,07,982.83
2013,06,25,04,08,982.83
2013,06,25,04,09,982.83
2013,06,25,04,10,982.83
2013,06,25,04,11,982.83
2013,06,25,04,12,982.83
2013,06,25,04,13,982.83
2013,06,25,04,14,982.83
2013,06,25,04,15,982.83
2013,06,25,04,16,982.83
2013,06,25,04,17,982.86
2013,06,25,04,18,982.86
2013,06,25,04,19,982.86
2013,06,25,04,20,982.86
2013,06,25,04,21,982.86
2013,06,25,04,22,982.86
2013,06,25,04,23,982.86
2013,06,25,04,24,982.86
2013,06,25,04,25,982.86
2013,06,25,04,26,982.86
2013,06,25,04,27,982.86
2013,06,25,04,28,982.86
2013,06,25,04,29,982.86
2013,06,25,04,30,982.86
2013,06,25,04,31,982.86
2013,06,25,04,32,982.86
2013,06,25,04,33,982.86
2013,06,25,04,34,982.86
2013,06,25,04,35,982.86
2013,06,25,04,36,982.83
2013,06,25,04,37,982.83
2013,06,25,04,38,982.83
2013,06,25,04,39,982.83
2013,06,25,04,40,982.83
2013,06,25,04,41,982.83
2013,06,25,04,42,982.83
2013,06,25,04,43,982.83
2013,06,25,04,44,982.83
2013,06,25,04,45,982.83
2013,06,25,04,46,982.83
2013,06,25,04,47,982.80
2013,06,25,04,48,982.80
2013,06,25,04,49,982.80
2013,06,25,04,50,982.80
2013,06,25,04,51,982.80
2013,06,25,04,52,982.80
2013,06,25,04,53,982.80
2013,06,25,04,54,982.80
2013,06,25,04,55,982.80
2013,06,25,04,56,982.80
2013,06,25,04,57,982.80
2013,06,25,04,58,982.80
2013,06,25,04,59,982.80
2013,06,25,05,00,982.80
2013,06,25,05,01,982.80
2013,06,25,05,02,982.80
2013,06,25,05,03,982.80
2013,06,25,05,04,982.80
2013,06,25,05,05,982.80
2013,06,25,05,06,982.80
2013,06,25,05,07,982.80
2013,06,25,05,08,982.80
2013,06,25,05,09,982.80
2013,06,25,05,10,982.80
2013,06,25,05,11,982.80
2013,06,25,05,12,982.80
2013,06,25,05,13,982.80
2013,06,25,05,14,982.80
2013,06,25,05,15,982.80
2013,06,25,05,16,982.80
2013,06,25,05,17,982.76
2013,06,25,05,18,982.76
2013,06,25,05,19,982.76
2013,06,25,05,20,982.76
2013,06,25,05,21,982.76
2013,06,25,05,22,982.76
2013,06,25,05,23,982.76
2013,06,25,05,24,982.76
2013,06,25,05,25,982.76
2013,06,25,05,26,982.76
2013,06,25,05,27,982.76
2013,06,25,05,28,982.76
2013,06,25,05,29,982.76
2013,06,25,05,30,982.76
2013,06,25,05,31,982.76
2013,06,25,05,32,982.80
2013,06,25,05,33,982.80
2013,06,25,05,34,982.80
2013,06,25,05,35,982.80
2013,06,25,05,36,982.80
2013,06,25,05,37,982.80
2013,06,25,05,38,982.80
2013,06,25,05,39,982.80
2013,06,25,05,40,982.80
2013,06,25,05,41,982.80
2013,06,25,05,42,982.80
2013,06,25,05,43,982.80
2013,06,25,05,44,982.80
2013,06,25,05,45,982.80
2013,06,25,05,46,982.80
2013,06,25,05,47,982.93
2013,06,25,05,48,982.93
2013,06,25,05,49,982.93
2013,06,25,05,50,982.93
2013,06,25,05,51,982.93
2013,06,25,05,52,982.93
2013,06,25,05,53,982.93
2013,06,25,05,54,982.93
2013,06,25,05,55,982.93
2013,06,25,05,56,982.93
2013,06,25,05,57,982.93
2013,06,25,05,58,982.93
2013,06,25,05,59,982.93
2013,06,25,06,00,982.93
2013,06,25,06,01,982.93
2013,06,25,06,02,983.20
2013,06,25,06,03,983.20
2013,06,25,06,04,983.20
2013,06,25,06,05,983.20
2013,06,25,06,06,983.20
2013,06,25,06,07,983.20
2013,06,25,06,08,983.20
2013,06,25,06,09,983.20
2013,06,25,06,10,983.20
2013,06,25,06,11,983.20
2013,06,25,06,12,983.20
2013,06,25,06,13,983.20
2013,06,25,06,14,983.20
2013,06,25,06,15,983.20
2013,06,25,06,16,983.20
2013,06,25,06,17,983.17
2013,06,25,06,18,983.17
2013,06,25,06,19,983.17
2013,06,25,06,20,983.17
2013,06,25,06,21,983.17
2013,06,25,06,22,983.17
2013,06,25,06,23,983.17
2013,06,25,06,24,983.17
2013,06,25,06,25,983.17
2013,06,25,06,26,983.17
2013,06,25,06,27,983.17
2013,06,25,06,28,983.17
2013,06,25,06,29,983.17
2013,06,25,06,30,983.17
2013,06,25,06,31,983.17
2013,06,25,06,32,982.93
2013,06,25,06,33,982.93
2013,06,25,06,34,982.93
2013,06,25,06,35,982.93
2013,06,25,06,36,982.93
2013,06,25,06,37,982.93
2013,06,25,06,38,982.93
2013,06,25,06,39,982.93
2013,06,25,06,40,982.93
2013,06,25,06,41,982.93
2013,06,25,06,42,982.93
2013,06,25,06,43,982.93
2013,06,25,06,44,982.93
2013,06,25,06,45,982.93
2013,06,25,06,46,982.93
2013,06,25,06,47,982.97
2013,06,25,06,48,982.97
2013,06,25,06,49,982.97
2013,06,25,06,50,982.97
2013,06,25,06,51,982.97
2013,06,25,06,52,982.97
2013,06,25,06,53,982.97
2013,06,25,06,54,982.97
2013,06,25,06,55,982.97
2013,06,25,06,56,982.97
2013,06,25,06,57,982.97
2013,06,25,06,58,982.97
2013,06,25,06,59,982.97
2013,06,25,07,00,982.97
2013,06,25,07,01,982.97
2013,06,25,07,02,983.24
2013,06,25,07,03,983.24
2013,06,25,07,04,983.24
2013,06,25,07,05,983.24
2013,06,25,07,06,983.24
2013,06,25,07,07,983.24
2013,06,25,07,08,983.24
2013,06,25,07,09,983.24
2013,06,25,07,10,983.24
2013,06,25,07,11,983.24
2013,06,25,07,12,983.24
2013,06,25,07,13,983.24
2013,06,25,07,14,983.24
2013,06,25,07,15,983.24
2013,06,25,07,16,983.24
2013,06,25,07,17,983.07
2013,06,25,07,18,983.07
2013,06,25,07,19,983.07
2013,06,25,07,20,983.07
2013,06,25,07,21,983.07
2013,06,25,07,22,983.07
2013,06,25,07,23,983.07
2013,06,25,07,24,983.07
2013,06,25,07,25,983.07
2013,06,25,07,26,983.07
2013,06,25,07,27,983.07
2013,06,25,07,28,983.07
2013,06,25,07,29,983.07
2013,06,25,07,30,983.07
2013,06,25,07,31,983.07
2013,06,25,07,32,983.17
2013,06,25,07,33,983.17
2013,06,25,07,34,983.17
2013,06,25,07,35,983.17
2013,06,25,07,36,983.17
2013,06,25,07,37,983.17
2013,06,25,07,38,983.17
2013,06,25,07,39,983.17
2013,06,25,07,40,983.17
2013,06,25,07,41,983.17
2013,06,25,07,42,983.17
2013,06,25,07,43,983.17
2013,06,25,07,44,983.17
2013,06,25,07,45,983.17
2013,06,25,07,46,983.17
2013,06,25,07,47,983.20
2013,06,25,07,48,983.20
2013,06,25,07,49,983.20
2013,06,25,07,50,983.20
2013,06,25,07,51,983.20
2013,06,25,07,52,983.20
2013,06,25,07,53,983.20
2013,06,25,07,54,983.20
2013,06,25,07,55,983.20
2013,06,25,07,56,983.20
2013,06,25,07,57,983.20
2013,06,25,07,58,983.20
2013,06,25,07,59,983.20
2013,06,25,08,00,983.20
2013,06,25,08,01,983.20
2013,06,25,08,02,983.27
2013,06,25,08,03,983.27
2013,06,25,08,04,983.27
2013,06,25,08,05,983.27
2013,06,25,08,06,983.27
2013,06,25,08,07,983.27
2013,06,25,08,08,983.27
2013,06,25,08,09,983.27
2013,06,25,08,10,983.27
2013,06,25,08,11,983.27
2013,06,25,08,12,983.27
2013,06,25,08,13,983.27
2013,06,25,08,14,983.27
2013,06,25,08,15,983.27
2013,06,25,08,16,983.27
2013,06,25,08,17,983.34
2013,06,25,08,18,983.34
2013,06,25,08,19,983.34
2013,06,25,08,20,983.34
2013,06,25,08,21,983.34
2013,06,25,08,22,983.34
2013,06,25,08,23,983.34
2013,06,25,08,24,983.34
2013,06,25,08,25,983.34
2013,06,25,08,26,983.34
2013,06,25,08,27,983.34
2013,06,25,08,28,983.34
2013,06,25,08,29,983.34
2013,06,25,08,30,983.34
2013,06,25,08,31,983.34
2013,06,25,08,32,983.37
2013,06,25,08,33,983.37
2013,06,25,08,34,983.37
2013,06,25,08,35,983.37
2013,06,25,08,36,983.37
2013,06,25,08,37,983.37
2013,06,25,08,38,983.37
2013,06,25,08,39,983.37
2013,06,25,08,40,983.37
2013,06,25,08,41,983.37
2013,06,25,08,42,983.37
2013,06,25,08,43,983.37
2013,06,25,08,44,983.37
2013,06,25,08,45,983.37
2013,06,25,08,46,983.37
2013,06,25,08,47,983.47
2013,06,25,08,48,983.47
2013,06,25,08,49,983.47
2013,06,25,08,50,983.47
2013,06,25,08,51,983.47
2013,06,25,08,52,983.47
2013,06,25,08,53,983.47
2013,06,25,08,54,983.47
2013,06,25,08,55,983.47
2013,06,25,08,56,983.47
2013,06,25,08,57,983.47
2013,06,25,08,58,983.47
2013,06,25,08,59,983.47
2013,06,25,09,00,983.47
2013,06,25,09,01,983.47
2013,06,25,09,02,983.68
2013,06,25,09,03,983.68
2013,06,25,09,04,983.68
2013,06,25,09,05,983.68
2013,06,25,09,06,983.68
2013,06,25,09,07,983.68
2013,06,25,09,08,983.68
2013,06,25,09,09,983.68
2013,06,25,09,10,983.68
2013,06,25,09,11,983.68
2013,06,25,09,12,983.68
2013,06,25,09,13,983.68
2013,06,25,09,14,983.68
2013,06,25,09,15,983.68
2013,06,25,09,16,983.68
2013,06,25,09,17,983.78
2013,06,25,09,18,983.78
2013,06,25,09,19,983.78
2013,06,25,09,20,983.78
2013,06,25,09,21,983.78
2013,06,25,09,22,983.78
2013,06,25,09,23,983.78
2013,06,25,09,24,983.78
2013,06,25,09,25,983.78
2013,06,25,09,26,983.78
2013,06,25,09,27,983.78
2013,06,25,09,28,983.78
2013,06,25,09,29,983.78
2013,06,25,09,30,983.78
2013,06,25,09,31,983.78
2013,06,25,09,32,983.81
2013,06,25,09,33,983.81
2013,06,25,09,34,983.81
2013,06,25,09,35,983.81
2013,06,25,09,36,983.81
2013,06,25,09,37,983.81
2013,06,25,09,38,983.81
2013,06,25,09,39,983.81
2013,06,25,09,40,983.81
2013,06,25,09,41,983.81
2013,06,25,09,42,983.81
2013,06,25,09,43,983.81
2013,06,25,09,44,983.81
2013,06,25,09,45,983.81
2013,06,25,09,46,983.81
2013,06,25,09,47,983.85
2013,06,25,09,48,983.85
2013,06,25,09,49,983.85
2013,06,25,09,50,983.85
2013,06,25,09,51,983.85
2013,06,25,09,52,983.85
2013,06,25,09,53,983.85
2013,06,25,09,54,983.85
2013,06,25,09,55,983.85
2013,06,25,09,56,983.85
2013,06,25,09,57,983.85
2013,06,25,09,58,983.85
2013,06,25,09,59,983.85
2013,06,25,10,00,983.85
2013,06,25,10,01,983.85
2013,06,25,10,02,983.85
2013,06,25,10,03,983.85
2013,06,25,10,04,983.85
2013,06,25,10,05,983.85
2013,06,25,10,06,983.85
2013,06,25,10,07,983.85
2013,06,25,10,08,983.85
2013,06,25,10,09,983.85
2013,06,25,10,10,983.85
2013,06,25,10,11,983.85
2013,06,25,10,12,983.85
2013,06,25,10,13,983.85
2013,06,25,10,14,983.85
2013,06,25,10,15,983.85
2013,06,25,10,16,983.85
2013,06,25,10,17,983.88
2013,06,25,10,18,983.88
2013,06,25,10,19,983.88
2013,06,25,10,20,983.88
2013,06,25,10,21,983.88
2013,06,25,10,22,983.88
2013,06,25,10,23,983.88
2013,06,25,10,24,983.88
2013,06,25,10,25,983.88
2013,06,25,10,26,983.88
2013,06,25,10,27,983.88
2013,06,25,10,28,983.88
2013,06,25,10,29,983.88
2013,06,25,10,30,983.88
2013,06,25,10,31,983.88
2013,06,25,10,32,984.29
2013,06,25,10,33,984.29
2013,06,25,10,34,984.29
2013,06,25,10,35,984.29
2013,06,25,10,36,984.29
2013,06,25,10,37,984.29
2013,06,25,10,38,984.29
2013,06,25,10,39,984.29
2013,06,25,10,40,984.29
2013,06,25,10,41,984.29
2013,06,25,10,42,984.29
2013,06,25,10,43,984.29
2013,06,25,10,44,984.29
2013,06,25,10,45,984.29
2013,06,25,10,46,984.29
2013,06,25,10,47,984.42
2013,06,25,10,48,984.42
2013,06,25,10,49,984.42
2013,06,25,10,50,984.42
2013,06,25,10,51,984.42
2013,06,25,10,52,984.42
2013,06,25,10,53,984.42
2013,06,25,10,54,984.42
2013,06,25,10,55,984.42
2013,06,25,10,56,984.42
2013,06,25,10,57,984.42
2013,06,25,10,58,984.42
2013,06,25,10,59,984.42
2013,06,25,11,00,984.42
2013,06,25,11,01,984.42
2013,06,25,11,02,984.56
2013,06,25,11,03,984.56
2013,06,25,11,04,984.56
2013,06,25,11,05,984.56
2013,06,25,11,06,984.56
2013,06,25,11,07,984.56
2013,06,25,11,08,984.56
2013,06,25,11,09,984.56
2013,06,25,11,10,984.56
2013,06,25,11,11,984.56
2013,06,25,11,12,984.56
2013,06,25,11,13,984.56
2013,06,25,11,14,984.56
2013,06,25,11,15,984.56
2013,06,25,11,16,984.56
2013,06,25,11,17,984.83
2013,06,25,11,18,984.83
2013,06,25,11,19,984.83
2013,06,25,11,20,984.83
2013,06,25,11,21,984.83
2013,06,25,11,22,984.83
2013,06,25,11,23,984.83
2013,06,25,11,24,984.83
2013,06,25,11,25,984.83
2013,06,25,11,26,984.83
2013,06,25,11,27,984.83
2013,06,25,11,28,984.83
2013,06,25,11,29,984.83
2013,06,25,11,30,984.83
2013,06,25,11,31,984.83
2013,06,25,11,32,984.90
2013,06,25,11,33,984.90
2013,06,25,11,34,984.90
2013,06,25,11,35,984.90
2013,06,25,11,36,984.90
2013,06,25,11,37,984.90
2013,06,25,11,38,984.90
2013,06,25,11,39,984.90
2013,06,25,11,40,984.90
2013,06,25,11,41,984.90
2013,06,25,11,42,984.90
2013,06,25,11,43,984.90
2013,06,25,11,44,984.90
2013,06,25,11,45,984.90
2013,06,25,11,46,984.90
2013,06,25,11,47,985.00
2013,06,25,11,48,985.00
2013,06,25,11,49,985.00
2013,06,25,11,50,985.00
2013,06,25,11,51,985.00
2013,06,25,11,52,985.00
2013,06,25,11,53,985.00
2013,06,25,11,54,985.00
2013,06,25,11,55,985.00
2013,06,25,11,56,985.00
2013,06,25,11,57,985.00
2013,06,25,11,58,985.00
2013,06,25,11,59,985.00
2013,06,25,12,00,985.00
2013,06,25,12,01,985.00
2013,06,25,12,02,985.13
2013,06,25,12,03,985.13
2013,06,25,12,04,985.13
2013,06,25,12,05,985.13
2013,06,25,12,06,985.13
2013,06,25,12,07,985.13
2013,06,25,12,08,985.13
2013,06,25,12,09,985.13
2013,06,25,12,10,985.13
2013,06,25,12,11,985.13
2013,06,25,12,12,985.13
2013,06,25,12,13,985.13
2013,06,25,12,14,985.13
2013,06,25,12,15,985.13
2013,06,25,12,16,985.13
2013,06,25,12,17,985.34
2013,06,25,12,18,985.34
2013,06,25,12,19,985.34
2013,06,25,12,20,985.34
2013,06,25,12,21,985.34
2013,06,25,12,22,985.34
2013,06,25,12,23,985.34
2013,06,25,12,24,985.34
2013,06,25,12,25,985.34
2013,06,25,12,26,985.34
2013,06,25,12,27,985.34
2013,06,25,12,28,985.34
2013,06,25,12,29,985.34
2013,06,25,12,30,985.34
2013,06,25,12,31,985.34
2013,06,25,12,32,985.27
2013,06,25,12,33,985.27
2013,06,25,12,34,985.27
2013,06,25,12,35,985.27
2013,06,25,12,36,985.27
2013,06,25,12,37,985.27
2013,06,25,12,38,985.27
2013,06,25,12,39,985.27
2013,06,25,12,40,985.27
2013,06,25,12,41,985.27
2013,06,25,12,42,985.27
2013,06,25,12,43,985.27
2013,06,25,12,44,985.27
2013,06,25,12,45,985.27
2013,06,25,12,46,985.27
2013,06,25,12,47,985.17
2013,06,25,12,48,985.17
2013,06,25,12,49,985.17
2013,06,25,12,50,985.17
2013,06,25,12,51,985.17
2013,06,25,12,52,985.17
2013,06,25,12,53,985.17
2013,06,25,12,54,985.17
2013,06,25,12,55,985.17
2013,06,25,12,56,985.17
2013,06,25,12,57,985.17
2013,06,25,12,58,985.17
2013,06,25,12,59,985.17
2013,06,25,13,00,985.17
2013,06,25,13,01,985.17
2013,06,25,13,02,985.10
2013,06,25,13,03,985.10
2013,06,25,13,04,985.10
2013,06,25,13,05,985.10
2013,06,25,13,06,985.10
2013,06,25,13,07,985.10
2013,06,25,13,08,985.10
2013,06,25,13,09,985.10
2013,06,25,13,10,985.10
2013,06,25,13,11,985.10
2013,06,25,13,12,985.10
2013,06,25,13,13,985.10
2013,06,25,13,14,985.10
2013,06,25,13,15,985.10
2013,06,25,13,16,985.10
2013,06,25,13,17,985.37
2013,06,25,13,18,985.37
2013,06,25,13,19,985.37
2013,06,25,13,20,985.37
2013,06,25,13,21,985.37
2013,06,25,13,22,985.37
2013,06,25,13,23,985.37
2013,06,25,13,24,985.37
2013,06,25,13,25,985.37
2013,06,25,13,26,985.37
2013,06,25,13,27,985.37
2013,06,25,13,28,985.37
2013,06,25,13,29,985.37
2013,06,25,13,30,985.37
2013,06,25,13,31,985.37
2013,06,25,13,32,985.30
2013,06,25,13,33,985.30
2013,06,25,13,34,985.30
2013,06,25,13,35,985.30
2013,06,25,13,36,985.30
2013,06,25,13,37,985.30
2013,06,25,13,38,985.30
2013,06,25,13,39,985.30
2013,06,25,13,40,985.30
2013,06,25,13,41,985.30
2013,06,25,13,42,985.30
2013,06,25,13,43,985.30
2013,06,25,13,44,985.30
2013,06,25,13,45,985.30
2013,06,25,13,46,985.30
2013,06,25,13,47,985.44
2013,06,25,13,48,985.44
2013,06,25,13,49,985.44
2013,06,25,13,50,985.44
2013,06,25,13,51,985.44
2013,06,25,13,52,985.44
2013,06,25,13,53,985.44
2013,06,25,13,54,985.44
2013,06,25,13,55,985.44
2013,06,25,13,56,985.44
2013,06,25,13,57,985.44
2013,06,25,13,58,985.44
2013,06,25,13,59,985.44
2013,06,25,14,00,985.44
2013,06,25,14,01,985.44
2013,06,25,14,02,985.40
2013,06,25,14,03,985.40
2013,06,25,14,04,985.40
2013,06,25,14,05,985.40
2013,06,25,14,06,985.40
2013,06,25,14,07,985.40
2013,06,25,14,08,985.40
2013,06,25,14,09,985.40
2013,06,25,14,10,985.40
2013,06,25,14,11,985.40
2013,06,25,14,12,985.40
2013,06,25,14,13,985.40
2013,06,25,14,14,985.40
2013,06,25,14,15,985.40
2013,06,25,14,16,985.40
2013,06,25,14,17,985.44
2013,06,25,14,18,985.44
2013,06,25,14,19,985.44
2013,06,25,14,20,985.44
2013,06,25,14,21,985.44
2013,06,25,14,22,985.44
2013,06,25,14,23,985.44
2013,06,25,14,24,985.44
2013,06,25,14,25,985.44
2013,06,25,14,26,985.44
2013,06,25,14,27,985.44
2013,06,25,14,28,985.44
2013,06,25,14,29,985.44
2013,06,25,14,30,985.44
2013,06,25,14,31,985.44
2013,06,25,14,32,985.64
2013,06,25,14,33,985.64
2013,06,25,14,34,985.64
2013,06,25,14,35,985.64
2013,06,25,14,36,985.64
2013,06,25,14,37,985.64
2013,06,25,14,38,985.64
2013,06,25,14,39,985.64
2013,06,25,14,40,985.64
2013,06,25,14,41,985.64
2013,06,25,14,42,985.64
2013,06,25,14,43,985.64
2013,06,25,14,44,985.64
2013,06,25,14,45,985.64
2013,06,25,14,46,985.64
2013,06,25,14,47,985.88
2013,06,25,14,48,985.88
2013,06,25,14,49,985.88
2013,06,25,14,50,985.88
2013,06,25,14,51,985.88
2013,06,25,14,52,985.88
2013,06,25,14,53,985.88
2013,06,25,14,54,985.88
2013,06,25,14,55,985.88
2013,06,25,14,56,985.88
2013,06,25,14,57,985.88
2013,06,25,14,58,985.88
2013,06,25,14,59,985.88
2013,06,25,15,00,985.88
2013,06,25,15,01,985.88
2013,06,25,15,02,986.01
2013,06,25,15,03,986.01
2013,06,25,15,04,986.01
2013,06,25,15,05,986.01
2013,06,25,15,06,986.01
2013,06,25,15,07,986.01
2013,06,25,15,08,986.01
2013,06,25,15,09,986.01
2013,06,25,15,10,986.01
2013,06,25,15,11,986.01
2013,06,25,15,12,986.01
2013,06,25,15,13,986.01
2013,06,25,15,14,986.01
2013,06,25,15,15,986.01
2013,06,25,15,16,986.01
2013,06,25,15,17,986.05
2013,06,25,15,18,986.05
2013,06,25,15,19,986.05
2013,06,25,15,20,986.05
2013,06,25,15,21,986.05
2013,06,25,15,22,986.05
2013,06,25,15,23,986.05
2013,06,25,15,24,986.05
2013,06,25,15,25,986.05
2013,06,25,15,26,986.05
2013,06,25,15,27,986.05
2013,06,25,15,28,986.05
2013,06,25,15,29,986.05
2013,06,25,15,30,986.05
2013,06,25,15,31,986.05
2013,06,25,15,32,986.05
2013,06,25,15,33,986.05
2013,06,25,15,34,986.05
2013,06,25,15,35,986.05
2013,06,25,15,36,986.05
2013,06,25,15,37,986.05
2013,06,25,15,38,986.05
2013,06,25,15,39,986.05
2013,06,25,15,40,986.05
2013,06,25,15,41,986.05
2013,06,25,15,42,986.05
2013,06,25,15,43,986.05
2013,06,25,15,44,986.05
2013,06,25,15,45,986.05
2013,06,25,15,46,986.05
2013,06,25,15,47,986.08
2013,06,25,15,48,986.08
2013,06,25,15,49,986.08
2013,06,25,15,50,986.08
2013,06,25,15,51,986.08
2013,06,25,15,52,986.08
2013,06,25,15,53,986.08
2013,06,25,15,54,986.08
2013,06,25,15,55,986.08
2013,06,25,15,56,986.08
2013,06,25,15,57,986.08
2013,06,25,15,58,986.08
2013,06,25,15,59,986.08
2013,06,25,16,00,986.08
2013,06,25,16,01,986.08
2013,06,25,16,02,986.15
2013,06,25,16,03,986.15
2013,06,25,16,04,986.15
2013,06,25,16,05,986.15
2013,06,25,16,06,986.15
2013,06,25,16,07,986.15
2013,06,25,16,08,986.15
2013,06,25,16,09,986.15
2013,06,25,16,10,986.15
2013,06,25,16,11,986.15
2013,06,25,16,12,986.15
2013,06,25,16,13,986.15
2013,06,25,16,14,986.15
2013,06,25,16,15,986.15
2013,06,25,16,16,986.15
2013,06,25,16,17,986.39
2013,06,25,16,18,986.39
2013,06,25,16,19,986.39
2013,06,25,16,20,986.39
2013,06,25,16,21,986.39
2013,06,25,16,22,986.39
2013,06,25,16,23,986.39
2013,06,25,16,24,986.39
2013,06,25,16,25,986.39
2013,06,25,16,26,986.39
2013,06,25,16,27,986.39
2013,06,25,16,28,986.39
2013,06,25,16,29,986.39
2013,06,25,16,30,986.39
2013,06,25,16,31,986.39
2013,06,25,16,32,986.39
2013,06,25,16,33,986.39
2013,06,25,16,34,986.39
2013,06,25,16,35,986.39
2013,06,25,16,36,986.39